Location: Arroyo de la Puebla
(40.4517°N, 4.3173°W)
Time: 13:45:37
(UTC+00:00)

Daily predictions for brighter satellites

Satellite Brightness Start Highest point End
(mag) Time Altitude Azimuth Time Altitude Azimuth Time Altitude Azimuth
Cosmos 1954 Rocket 4.3 20:13:41 10° N 20:18:50 53° ENE 20:23:54 10° SE
Lacrosse 5 rocket 1.5 20:17:19 10° NW 20:21:08 63° SW 20:25:09 10° SSE
GEOS 3 Rocket 4.1 20:18:10 10° ESE 20:23:02 47° NE 20:27:57 10° NNW
ATLAS 2AS CENTAUR R/B 2.8 20:22:03 10° NNW 20:29:07 69° NE 20:35:41 10° SE
S3M 4.5 20:23:31 10° SSW 20:29:39 67° W 20:35:45 10° N
Resurs 1-3 3.8 20:25:38 10° S 20:29:59 76° WSW 20:34:23 10° NNW
USA 186 3.9 20:28:20 10° SSW 20:30:50 24° W 20:33:27 10° NW
USA 32 4.4 20:28:09 10° SSE 20:33:06 46° E 20:38:05 10° NNE
Cosmos 1980 Rocket 4.4 20:32:12 10° NNE 20:33:44 11° NE 20:35:16 10° ENE
PSLV R/B 4.0 20:29:55 10° NNE 20:34:02 60° ESE 20:38:09 10° S
Cosmos 1697 Rocket 4.4 20:30:34 10° N 20:34:39 20° NE 20:38:42 10° E
TSX-5 4.3 20:31:38 10° S 20:35:49 61° ESE 20:41:16 10° NNE
SPOT 1/Viking Rocket 3.7 20:34:38 10° SSE 20:39:39 58° ENE 20:44:43 10° N
Cosmos 1025 Rocket 3.2 20:38:29 10° SSW 20:42:44 74° W 20:47:03 10° N
IRS-1A Rocket 4.5 20:36:56 10° SSE 20:42:47 70° ENE 20:48:38 10° N
X-37B 2.1 20:40:42 10° WNW 20:43:14 30° N 20:45:46 10° ENE
NOSS 2-1 (E) 4.4 20:43:54 10° NNW 20:48:49 72° NE 20:55:09 13° SE
SPOT 5 4.1 20:49:45 12° ESE 20:52:41 22° ENE 20:55:59 10° NNE
Cosmos 1703 4.1 20:51:13 13° SSE 20:54:05 30° E 20:57:30 10° NNE
Cosmos 1452 Rocket 3.5 20:51:17 10° S 20:56:29 67° ESE 21:01:42 10° NNE
Cosmos 1833 Rocket 2.9 20:51:19 10° S 20:56:38 47° ESE 21:01:59 10° NE
Delta 2 Rocket 3.5 20:54:56 10° WSW 20:58:00 33° S 20:59:56 18° ESE
RESURS DK-1 3.4 20:54:46 10° N 20:58:33 33° ENE 21:01:19 16° ESE
Terra 3.5 20:56:28 12° ESE 20:59:26 20° ENE 21:02:49 10° NNE
BREEZE-M DEB (TANK) 4.2 20:59:44 10° W 21:01:25 17° SSW 21:03:20 11° S
Cosmos 1110 Rocket 4.3 20:57:32 10° S 21:02:31 47° ESE 21:07:35 10° NNE
Helios 1A Rocket 4.3 21:01:06 15° ESE 21:03:26 24° ENE 21:06:44 10° NNE
CZ-4B R/B 1.2 21:01:12 10° N 21:04:05 72° WNW 21:06:57 10° SSW
ERS-1 Rocket 4.1 21:02:33 15° ESE 21:05:52 30° ENE 21:10:11 10° N
Resurs 01 Rocket 2.0 21:01:44 10° S 21:06:08 64° W 21:10:33 10° NNW
Cosmos 1455 Rocket 4.3 21:02:13 10° NNW 21:06:16 40° W 21:10:18 10° SSW
Cosmos 2228 3.8 21:09:17 10° NNE 21:13:08 33° ENE 21:15:15 21° SE
Cosmos 2184 Rocket 4.1 21:11:13 10° N 21:17:19 59° E 21:21:54 18° SSE
Lacrosse 5 2.5 21:13:41 10° NW 21:18:34 47° SW 21:22:05 18° SSE
IRAS Rocket 4.3 21:15:59 10° NNE 21:21:36 87° WNW 21:27:08 10° SSW
Cosmos 1271 Rocket 3.7 21:21:43 10° NNW 21:25:31 46° W 21:28:52 12° SSW
Cosmos 2082 Rocket 2.8 21:27:22 21° SSE 21:30:29 36° ESE 21:35:39 10° NE
USA 245 3.2 21:30:03 23° SSE 21:32:38 89° WSW 21:36:10 10° NNW
Cosmos 1536 Rocket 3.9 21:28:46 10° SSW 21:33:02 64° W 21:37:22 10° N
H-2A R/B 4.3 21:29:26 10° N 21:33:13 27° WNW 21:37:00 10° SW
Cosmos 1455 3.5 21:31:00 10° NNW 21:34:31 36° W 21:37:44 12° SSW
CARTOSAT-1 3.9 21:33:48 19° S 21:36:49 61° W 21:41:06 10° NNW
ARIANE 5 R/B 3.7 21:35:43 23° ESE 21:37:26 31° ENE 21:41:20 10° N
USA 267 3.8 21:34:13 10° ENE 21:40:03 34° SE 21:45:16 13° S
Meteor 1-21 Rocket 4.1 21:36:53 17° S 21:41:18 76° E 21:46:59 10° NNE
Cosmos 1606 Rocket 4.0 21:37:44 10° N 21:41:54 45° ENE 21:43:23 32° SE
Tiangong 3.2 21:40:02 10° WSW 21:41:54 15° SW 21:41:54 15° SW
Cosmos 192 4.4 21:43:00 25° S 21:45:44 57° ESE 21:50:33 10° NNE
Cosmos 1741 Rocket 4.1 21:42:00 10° NNW 21:47:20 76° WSW 21:50:18 27° S
SPOT 3 Rocket 3.9 21:46:11 20° S 21:49:44 60° W 21:54:54 10° NNW
Ariane Rocket 4.2 21:46:35 11° SSW 21:50:58 36° W 21:55:40 10° NNW
Cosmos 2074 Rocket 4.3 21:53:44 10° NNW 21:59:54 62° W 22:04:20 19° SSW
Cosmos 2327 Rocket 4.5 21:53:55 10° N 22:00:14 75° E 22:03:23 31° SSE
Cosmos 1892 3.6 22:02:06 31° E 22:02:06 31° E 22:05:15 10° NNE
Cosmos 1726 Rocket 3.6 22:00:22 10° N 22:04:39 62° E 22:05:41 46° SE
Nadezhda 1 Rocket 4.1 22:03:16 17° SSW 22:08:00 73° W 22:14:05 10° N
Meteor 2-1 Rocket 4.2 22:09:43 10° NNW 22:15:14 77° W 22:17:41 35° S
Cosmos 1992 Rocket 4.4 22:15:18 38° ESE 22:15:57 40° ESE 22:20:49 10° NE
Cosmos 1932 4.4 22:13:39 24° SSW 22:17:25 66° ESE 22:23:39 10° NE
SL-8 R/B 3.6 22:13:20 10° WNW 22:18:09 77° SW 22:19:18 51° SE
SL-16 R/B 4.1 22:14:29 10° N 22:18:25 19° NE 22:21:23 13° E
Cosmos 1980 Rocket 2.3 22:13:15 10° NNW 22:18:55 64° ENE 22:20:52 40° SE
X-37B 1.4 22:16:10 10° WNW 22:18:13 43° NW 22:18:13 43° NW
Cosmos 1697 Rocket 2.9 22:13:32 10° NNW 22:19:05 64° WSW 22:21:16 36° S
ATLAS 2AS CENTAUR R/B 4.4 22:14:15 10° WNW 22:19:16 22° WSW 22:23:22 12° SSW
Spot 2 Rocket 4.3 22:18:58 26° SSW 22:21:25 45° W 22:26:19 10° NNW
Cosmos 2369 3.7 22:16:48 10° NNW 22:22:34 78° ENE 22:24:30 43° SE
TIMED 4.4 22:21:54 57° S 22:22:42 77° ESE 22:27:05 10° NNE
COSMOS 2406 3.8 22:18:56 10° SW 22:24:35 58° WNW 22:30:17 10° NNE
ATLAS 5 CENTAUR R/B 1.7 22:29:23 47° ENE 22:29:23 47° ENE 22:32:27 10° NE
SPOT 5 3.9 22:28:58 24° SW 22:30:35 32° W 22:34:29 10° NNW
In-Cosmos 22 Rocket 4.2 22:30:23 47° SSE 22:31:42 60° E 22:37:05 10° NNE
Cosmos 1869 4.3 22:31:53 10° NNE 22:35:09 33° ENE 22:35:09 33° ENE
RESURS DK-1 4.3 22:33:17 10° WNW 22:36:17 20° WSW 22:37:10 18° WSW
Cosmos 2084 Rocket 3.2 22:32:30 10° NW 22:36:26 73° WSW 22:36:30 73° SW
Terra 2.6 22:35:21 34° SW 22:36:50 45° W 22:41:25 10° NNW
Meteor 1-27 4.4 22:35:56 10° N 22:41:24 55° ENE 22:42:35 46° ESE
Cosmos 1892 Rocket 4.3 22:41:21 35° SW 22:42:45 48° W 22:47:01 10° N
ERS-1 Rocket 4.3 22:42:32 23° SW 22:44:33 31° W 22:49:02 10° NW
ASTEX 1 3.3 22:39:44 10° N 22:44:46 88° W 22:45:50 57° S
Cosmos 1825 2.6 22:49:40 54° NE 22:49:40 54° NE 22:52:43 10° NNE
ADEOS Rocket 4.5 22:45:43 24° ESE 22:49:03 35° ENE 22:55:48 10° N
Cosmos 1408 3.4 22:50:12 41° WNW 22:50:12 41° WNW 22:53:23 10° N
SL-8 Rocket 3.9 22:44:57 10° N 22:51:13 88° E 22:53:01 49° S
Cosmos 2344 4.4 22:42:04 10° NW 22:51:33 79° WSW 22:58:13 34° SSE
Cosmos 2058 Rocket 3.1 22:47:47 10° NNW 22:52:12 68° W 22:52:35 63° SW
Cosmos 2322 Rocket 3.8 22:49:29 10° N 22:54:08 25° NE 22:56:24 20° E
Cosmos 1626 Rocket 3.5 22:54:44 69° ENE 22:54:44 69° ENE 22:58:52 10° NNE
Cosmos 2278 3.6 22:59:31 10° NNW 23:05:17 89° ENE 23:06:17 62° SSE
Cosmos 968 Rocket 4.0 23:00:49 10° NNW 23:05:48 46° WSW 23:06:36 43° SW
Cosmos 2366 rocket 4.0 23:03:58 10° N 23:10:20 79° W 23:12:00 52° S
SJ 16-02 2.7 23:08:18 10° N 23:12:09 28° ENE 23:12:19 28° ENE
ARIANE 5 R/B 4.3 23:13:16 23° WSW 23:13:53 23° W 23:17:27 10° NW
Cosmos 2218 Rocket 4.1 23:07:31 10° N 23:13:55 74° W 23:15:36 51° SSW
Cosmos 2082 Rocket 3.7 23:09:27 10° WSW 23:14:33 33° WNW 23:19:41 10° N
Meteor 2-20 4.4 23:13:53 55° SE 23:14:50 63° E 23:20:50 10° NNE
Cosmos 1867 3.7 23:11:25 10° NW 23:16:46 57° WSW 23:17:08 55° SW
GP-B 4.2 23:16:22 10° NNW 23:20:27 36° W 23:21:00 35° W
H-2A R/B 4.3 23:17:46 10° NNE 23:20:55 42° ENE 23:20:55 42° ENE
USA 267 3.5 23:16:49 10° NE 23:23:18 68° NW 23:29:46 10° WSW
Cosmos 2058 4.3 23:26:08 31° ENE 23:26:08 31° ENE 23:28:57 10° NNE
Spot 4 3.7 23:27:39 85° ENE 23:27:39 85° ENE 23:32:28 10° NNW
Cosmos 1606 4.0 23:25:33 10° N 23:28:16 34° NE 23:28:16 34° NE
Cosmos 2360 Rocket 3.5 23:25:09 10° N 23:30:08 30° ENE 23:32:00 25° E
SL-08 R/B 4.5 23:30:21 10° N 23:36:50 84° E 23:38:04 61° SSE
Meteor 2-20 Rocket 4.3 23:42:26 66° SSE 23:43:14 76° E 23:49:20 10° N
Cosmos 1633 4.2 23:45:56 30° NNW 23:45:56 30° NNW 23:48:06 10° N
Cosmos 1758 Rocket 3.9 23:45:44 59° NW 23:45:44 59° NW 23:49:39 10° N
Cosmos 2237 4.4 23:40:21 10° NNW 23:46:02 61° ENE 23:46:53 55° ESE
